Sigfox identifier Datetime Temperature Humidity SNR
002F252D 2019-04-23 14:48:18 16.7 29 23.1
002F252D 2019-04-23 14:15:29 16.5 29 23.1
002F252D 2019-04-23 13:42:40 16.3 29 22.9
002F252D 2019-04-23 13:09:51 16.3 29 22.6
002F252D 2019-04-23 12:37:02 16 29 22.5
002F252D 2019-04-23 12:04:12 16 29 22.3
002F252D 2019-04-23 11:31:21 15.8 29 22.4
002F252D 2019-04-23 10:58:30 15.8 29 22.5
002F252D 2019-04-23 10:25:39 15.6 29 22.4
002F252D 2019-04-23 09:52:48 15.6 29 22.4
002F252D 2019-04-23 09:19:57 15.6 29 22.1
002F252D 2019-04-23 08:47:06 15.6 29 21.9
002F252D 2019-04-23 08:14:16 15.6 29 22
002F252D 2019-04-23 07:41:26 15.6 29 22.1
002F252D 2019-04-23 07:08:36 15.6 29 22.1
002F252D 2019-04-23 06:35:46 15.6 29 22.2
002F252D 2019-04-23 06:02:55 15.5 29 22
002F252D 2019-04-23 05:30:05 15.4 29 22
002F252D 2019-04-23 04:57:15 15.4 29 22
002F252D 2019-04-23 04:24:26 15.4 29 22
002F252D 2019-04-23 03:51:36 15.6 29 22.1
002F252D 2019-04-23 03:18:47 15.4 29 22.1
002F252D 2019-04-23 02:45:58 15.4 29 22.1
002F252D 2019-04-23 02:13:09 15.4 28 22.2
002F252D 2019-04-23 01:40:20 15.5 28 22.3
002F252D 2019-04-23 01:07:31 15.6 28 22.2
002F252D 2019-04-23 00:34:42 15.6 28 22.2
002F252D 2019-04-23 00:01:53 15.6 28 22.2
002F252D 2019-04-22 23:29:04 15.6 28 22.2
002F252D 2019-04-22 22:56:14 15.6 28 22.2
002F252D 2019-04-22 22:23:24 15.6 28 22.2
002F252D 2019-04-22 21:50:35 15.6 28 22.1
002F252D 2019-04-22 21:17:45 15.6 28 22.1
002F252D 2019-04-22 20:44:55 15.8 28 22.1
002F252D 2019-04-22 20:12:05 15.8 28 22
002F252D 2019-04-22 19:39:16 15.8 28 21.9
002F252D 2019-04-22 19:06:26 16 28 21.9
002F252D 2019-04-22 18:33:36 16 28 21.9
002F252D 2019-04-22 18:00:47 16 28 21.8
002F252D 2019-04-22 17:27:58 16 28 21.8
002F252D 2019-04-22 16:55:08 16 28 21.7
002F252D 2019-04-22 16:22:18 16 28 21.9
002F252D 2019-04-22 15:49:28 15.9 28 21.9
002F252D 2019-04-22 15:16:38 15.9 28 21.8
002F252D 2019-04-22 14:43:48 15.8 28 21.8
002F252D 2019-04-22 14:10:59 15.8 28 21.7
002F252D 2019-04-22 13:38:10 15.8 28 21.7
002F252D 2019-04-22 13:05:19 15.8 28 21.8
002F252D 2019-04-22 12:32:28 15.6 28 21.7
002F252D 2019-04-22 11:59:38 15.7 28 21.7
002F252D 2019-04-22 11:26:48 15.7 28 21.8
002F252D 2019-04-22 10:53:58 15.8 28 21.7
002F252D 2019-04-22 10:21:08 15.8 28 21.7
002F252D 2019-04-22 09:48:17 15.5 28 21.7
002F252D 2019-04-22 09:15:28 15.6 28 21.8
002F252D 2019-04-22 08:42:38 15.6 28 21.8
002F252D 2019-04-22 08:09:47 15.6 28 21.9
002F252D 2019-04-22 07:36:57 15.6 28 21.9
002F252D 2019-04-22 07:04:08 15.6 28 21.7
002F252D 2019-04-22 06:31:18 15.6 28 21.7
002F252D 2019-04-22 05:58:28 15.6 28 21.7
002F252D 2019-04-22 05:25:40 15.7 28 21.7
002F252D 2019-04-22 04:52:50 15.6 28 21.7
002F252D 2019-04-22 04:20:01 15.6 28 21.8
002F252D 2019-04-22 03:47:11 15.6 28 21.8
002F252D 2019-04-22 03:14:21 15.6 27 21.8
002F252D 2019-04-22 02:41:32 15.6 28 21.8
002F252D 2019-04-22 02:08:43 15.4 27 21.8
002F252D 2019-04-22 01:35:54 15.6 27 21.7
002F252D 2019-04-22 01:03:05 15.4 28 21.7
002F252D 2019-04-22 00:30:14 15.4 27 21.7
002F252D 2019-04-21 23:57:23 15.5 27 21.8
002F252D 2019-04-21 23:24:32 15.4 27 21.7
002F252D 2019-04-21 22:51:41 15.4 27 21.6
002F252D 2019-04-21 22:18:50 15.4 27 21.6
002F252D 2019-04-21 21:46:00 15.4 27 21.5
002F252D 2019-04-21 21:13:10 15.4 27 21.8
002F252D 2019-04-21 20:40:19 15.4 27 21.8
002F252D 2019-04-21 20:07:29 15.4 27 21.8
002F252D 2019-04-21 19:34:40 15.4 27 21.7
002F252D 2019-04-21 19:01:50 15.4 27 21.6
002F252D 2019-04-21 18:29:01 15.4 27 21.6
002F252D 2019-04-21 17:56:11 15.4 27 21.6
002F252D 2019-04-21 17:23:21 15.4 27 21.7
002F252D 2019-04-21 16:50:32 15.4 27 21.6
002F252D 2019-04-21 16:17:43 15.4 27 21.6
002F252D 2019-04-21 15:44:54 15.3 27 21.7
002F252D 2019-04-21 15:12:05 15.3 27 21.7
002F252D 2019-04-21 14:39:16 15.4 27 21.7
002F252D 2019-04-21 14:06:26 15.4 27 21.7
002F252D 2019-04-21 13:33:36 15.3 27 21.7
002F252D 2019-04-21 13:00:45 15.2 27 21.6
002F252D 2019-04-21 12:27:55 15.2 27 21.6
002F252D 2019-04-21 11:55:04 15.2 27 21.8
002F252D 2019-04-21 11:22:14 15.2 27 21.8
002F252D 2019-04-21 10:49:25 15.2 27 21.7
002F252D 2019-04-21 10:16:34 15.3 27 21.7
002F252D 2019-04-21 09:43:44 15.4 27 21.6
002F252D 2019-04-21 09:10:53 15.4 27 21.6
002F252D 2019-04-21 08:38:03 15.6 27 21.5
002F252D 2019-04-21 08:05:13 15.6 27 21.7
002F252D 2019-04-21 07:32:23 15.6 27 21.5
002F252D 2019-04-21 06:59:33 15.6 27 21.4
002F252D 2019-04-21 06:26:43 15.6 27 21.4
002F252D 2019-04-21 05:53:53 15.7 27 21.4
002F252D 2019-04-21 05:21:03 15.6 26 21.3
002F252D 2019-04-21 04:48:13 15.6 27 21.3
002F252D 2019-04-21 04:15:22 15.6 26 21.4
002F252D 2019-04-21 03:42:31 15.6 27 21.4
002F252D 2019-04-21 03:09:41 15.5 26 21.3
002F252D 2019-04-21 02:36:51 15.6 26 21.1
002F252D 2019-04-21 02:04:02 15.5 26 21.1
002F252D 2019-04-21 01:31:12 15.6 26 21.1
002F252D 2019-04-21 00:58:23 15.4 26 21.1
002F252D 2019-04-21 00:25:33 15.5 26 21.1
002F252D 2019-04-20 23:52:43 15.6 26 21.1
002F252D 2019-04-20 23:19:52 15.4 26 21.2
002F252D 2019-04-20 22:47:02 15.4 26 21.3
002F252D 2019-04-20 22:14:12 15.4 26 21.3
002F252D 2019-04-20 21:41:22 15.4 26 21.3
002F252D 2019-04-20 21:08:32 15.4 26 21.5
002F252D 2019-04-20 20:35:41 15.4 26 21.6
002F252D 2019-04-20 20:02:50 15.4 26 21.6
002F252D 2019-04-20 19:30:01 15.4 26 21.6
002F252D 2019-04-20 18:57:11 15.4 26 21.7
002F252D 2019-04-20 18:24:21 15.5 26 21.8
002F252D 2019-04-20 17:51:31 15.6 26 21.8
002F252D 2019-04-20 17:18:40 15.4 26 21.9
002F252D 2019-04-20 16:45:49 15.4 26 21.9
002F252D 2019-04-20 16:13:00 15.4 26 21.9
002F252D 2019-04-20 15:40:10 15.5 26 21.9
002F252D 2019-04-20 15:07:23 15.4 26 21.9
002F252D 2019-04-20 14:34:32 15.3 26 21.9
002F252D 2019-04-20 14:01:43 15.4 26 21.9
002F252D 2019-04-20 13:28:54 15.4 26 22
002F252D 2019-04-20 12:56:05 15.4 26 22.1
002F252D 2019-04-20 12:23:18 15.4 26 22.1
002F252D 2019-04-20 11:50:26 15.4 26 22.1
002F252D 2019-04-20 11:17:36 15.4 26 22.1
002F252D 2019-04-20 10:44:47 15.4 26 22.1
002F252D 2019-04-20 10:11:57 15.4 26 22.1
002F252D 2019-04-20 09:39:07 15.4 25 22.1
002F252D 2019-04-20 09:06:16 15.4 25 22
002F252D 2019-04-20 08:33:27 15.4 25 22
002F252D 2019-04-20 08:00:38 15.6 25 22
002F252D 2019-04-20 07:27:48 15.6 25 22
002F252D 2019-04-20 06:54:58 15.6 25 22
002F252D 2019-04-20 06:22:09 15.4 25 22.1
002F252D 2019-04-20 05:49:19 15.6 25 22.1
002F252D 2019-04-20 05:16:31 15.6 25 22
002F252D 2019-04-20 04:43:42 15.4 25 21.9
002F252D 2019-04-20 04:10:54 15.4 25 21.9
002F252D 2019-04-20 03:38:05 15.5 25 21.8
002F252D 2019-04-20 03:05:15 15.6 25 21.8
002F252D 2019-04-20 02:32:25 15.6 25 21.8
002F252D 2019-04-20 01:59:35 15.6 25 21.8
002F252D 2019-04-20 01:26:45 15.7 25 21.9
002F252D 2019-04-20 00:53:53 15.8 25 21.8
002F252D 2019-04-20 00:21:02 15.8 25 21.6
002F252D 2019-04-19 23:48:10 15.8 25 21.6
002F252D 2019-04-19 23:15:19 15.8 25 21.6
002F252D 2019-04-19 22:42:29 15.9 25 21.7
002F252D 2019-04-19 22:09:39 15.9 25 21.7
002F252D 2019-04-19 21:36:50 16 25 21.6
002F252D 2019-04-19 21:04:03 16 25 21.7
002F252D 2019-04-19 20:31:09 16 25 21.7
002F252D 2019-04-19 19:58:20 16 25 21.7
002F252D 2019-04-19 19:25:31 16.1 25 21.7
002F252D 2019-04-19 18:52:41 16.2 25 21.6
002F252D 2019-04-19 18:19:52 16.3 25 21.6
002F252D 2019-04-19 17:47:02 16.3 25 21.5
002F252D 2019-04-19 17:14:11 16.2 25 21.4
002F252D 2019-04-19 16:41:20 16.1 25 21.3
002F252D 2019-04-19 16:08:30 16 25 21.3
002F252D 2019-04-19 15:35:40 16 25 21.3
002F252D 2019-04-19 15:02:48 16 25 21.4
002F252D 2019-04-19 14:29:57 16 24 21.4
002F252D 2019-04-19 13:57:06 15.9 24 21.4
002F252D 2019-04-19 13:24:14 15.8 24 21.5
002F252D 2019-04-19 12:51:23 15.8 24 21.7
002F252D 2019-04-19 12:18:32 15.8 24 21.8
002F252D 2019-04-19 11:45:41 15.8 24 21.8
002F252D 2019-04-19 11:12:49 15.6 24 21.9
002F252D 2019-04-19 10:39:59 15.6 24 22.1
002F252D 2019-04-19 10:07:08 15.6 24 22.1
002F252D 2019-04-19 09:34:18 15.6 24 22.3
002F252D 2019-04-19 09:01:28 15.6 24 22.2
002F252D 2019-04-19 08:28:37 15.6 24 22.2
002F252D 2019-04-19 07:55:48 15.6 24 22.6
002F252D 2019-04-19 07:22:57 15.6 24 22.6
002F252D 2019-04-19 06:50:06 15.6 24 22.8
002F252D 2019-04-19 06:17:15 15.6 24 23
002F252D 2019-04-19 05:44:23 15.6 24 23.1
002F252D 2019-04-19 05:11:32 15.8 24 23.3
002F252D 2019-04-19 04:38:41 15.6 24 23.3
002F252D 2019-04-19 04:05:50 15.6 24 23.5
002F252D 2019-04-19 03:32:59 15.8 24 23.7
002F252D 2019-04-19 03:00:08 15.8 24 23.8
002F252D 2019-04-19 02:27:18 15.6 24 23.8
002F252D 2019-04-19 01:54:28 15.8 24 24
002F252D 2019-04-19 01:21:37 15.8 24 24.2
002F252D 2019-04-19 00:48:46 15.9 24 24.5
002F252D 2019-04-19 00:15:56 16 24 24.7
002F252D 2019-04-18 23:43:10 16.1 24 24.9
002F252D 2019-04-18 23:10:16 16.3 24 24.9
002F252D 2019-04-18 22:37:26 16.3 24 25
002F252D 2019-04-18 22:04:35 16.5 24 25.1
002F252D 2019-04-18 21:31:44 16.5 24 25.1
002F252D 2019-04-18 20:58:54 16.5 24 25
002F252D 2019-04-18 20:26:04 16.5 23 25.1
002F252D 2019-04-18 19:53:14 16.5 23 25
002F252D 2019-04-18 19:20:25 16.7 23 25
002F252D 2019-04-18 18:47:35 16.7 23 25
002F252D 2019-04-18 18:14:45 16.7 23 24.8
002F252D 2019-04-18 17:41:55 16.7 23 24.8
002F252D 2019-04-18 17:09:05 16.7 23 24.7
002F252D 2019-04-18 16:36:16 16.5 23 24.7
002F252D 2019-04-18 16:03:27 16.5 23 24.7
002F252D 2019-04-18 15:30:37 16.5 23 24.6
002F252D 2019-04-18 14:57:47 16.3 23 24.6
002F252D 2019-04-18 14:24:57 16.3 23 24.4
002F252D 2019-04-18 13:52:06 16.1 23 24.4
002F252D 2019-04-18 13:19:15 16 23 24.3
002F252D 2019-04-18 12:46:24 16 23 24.4
002F252D 2019-04-18 12:13:32 16 23 24.3
002F252D 2019-04-18 11:40:42 16 23 24.1
002F252D 2019-04-18 11:07:51 16 23 23.8
002F252D 2019-04-18 10:35:00 16 23 23.6
002F252D 2019-04-18 10:02:09 15.8 23 23.4
002F252D 2019-04-18 09:29:18 15.6 23 23.4
002F252D 2019-04-18 08:56:29 15.7 23 23.4
002F252D 2019-04-18 08:23:39 16 23 23.3
002F252D 2019-04-18 07:50:48 16 23 23.1
002F252D 2019-04-18 07:17:58 16 23 23.2
002F252D 2019-04-18 06:45:06 16 23 23.3
002F252D 2019-04-18 06:12:15 16 23 23.4
002F252D 2019-04-18 05:39:24 15.9 23 23.5
002F252D 2019-04-18 05:06:33 15.8 23 23.5
002F252D 2019-04-18 04:33:43 15.8 22 23.5
002F252D 2019-04-18 04:00:53 15.8 22 23.6
002F252D 2019-04-18 03:28:03 15.7 22 23.5
002F252D 2019-04-18 02:55:12 15.6 22 23.5
002F252D 2019-04-18 02:22:22 15.7 22 23.4
002F252D 2019-04-18 01:49:32 15.8 22 23.3
002F252D 2019-04-18 01:16:41 15.9 22 23.2
002F252D 2019-04-18 00:43:50 16 22 23.2
002F252D 2019-04-18 00:11:00 16.3 22 23.1
002F252D 2019-04-17 23:38:09 16.4 22 23
002F252D 2019-04-17 23:05:20 16.5 22 22.7
002F252D 2019-04-17 22:32:31 16.5 22 22.6
002F252D 2019-04-17 21:59:41 16.5 22 22.6
002F252D 2019-04-17 21:26:52 16.5 22 22.4
002F252D 2019-04-17 20:54:03 16.3 22 22.3
002F252D 2019-04-17 20:21:12 16.3 22 22.1
002F252D 2019-04-17 19:48:22 16.3 22 21.8
002F252D 2019-04-17 19:15:32 16.3 22 21.6
002F252D 2019-04-17 18:42:42 16.3 22 21.5
002F252D 2019-04-17 18:09:53 16.3 22 21.6
002F252D 2019-04-17 17:37:04 16.2 22 21.5
002F252D 2019-04-17 17:04:17 16.1 22 21.2
002F252D 2019-04-17 16:31:29 16 22 21
002F252D 2019-04-17 15:58:41 16 22 20.5
002F252D 2019-04-17 15:25:54 15.9 22 20.5
002F252D 2019-04-17 14:53:05 16 21 20.4
002F252D 2019-04-17 14:20:16 16 21 19.9
002F252D 2019-04-17 13:47:29 16.1 21 20.2
002F252D 2019-04-17 13:14:40 16.5 21 19.9
002F252D 2019-04-17 12:41:52 16.5 21 19.8
002F252D 2019-04-17 12:09:03 16.3 21 19.8
002F252D 2019-04-17 11:36:14 16.3 21 19.7
002F252D 2019-04-17 11:03:25 16.1 21 19.8
002F252D 2019-04-17 10:30:38 16 21 19.6
002F252D 2019-04-17 09:57:49 16 21 19.9
002F252D 2019-04-17 09:25:02 16 21 21.3
002F252D 2019-04-17 08:52:13 16 21 21.3
002F252D 2019-04-17 08:19:26 16 21 21.2
002F252D 2019-04-17 07:46:38 16.3 21 21.3
002F252D 2019-04-17 07:13:49 16.6 21 21.2
002F252D 2019-04-17 06:41:01 16.9 21 21.3
002F252D 2019-04-17 06:08:12 16.9 21 21.4
002F252D 2019-04-17 05:35:23 16.9 21 21.5
002F252D 2019-04-17 05:02:34 16.9 21 21.4
002F252D 2019-04-17 04:29:46 17.1 21 21.5
002F252D 2019-04-17 03:56:56 17.1 21 21.3
002F252D 2019-04-17 03:24:06 17.2 21 21.2
002F252D 2019-04-17 02:51:19 17.3 21 21.2
002F252D 2019-04-17 02:18:30 17.3 21 21.1
002F252D 2019-04-17 01:45:41 17.3 21 21
002F252D 2019-04-17 01:12:53 17.3 21 21
002F252D 2019-04-17 00:40:04 17.3 21 21.1
002F252D 2019-04-17 00:07:16 17.1 21 20.9
002F252D 2019-04-16 23:34:26 16.9 21 20.8
002F252D 2019-04-16 23:01:38 16.7 21 20.7
002F252D 2019-04-16 22:28:47 16.9 21 20.6
002F252D 2019-04-16 21:56:00 17.5 21 20.7
002F252D 2019-04-16 21:23:12 17.8 21 20.5
002F252D 2019-04-16 20:50:25 18 21 20.8
002F252D 2019-04-16 20:17:37 18.2 20 20.8
002F252D 2019-04-16 19:44:49 18.3 21 19.2
002F252D 2019-04-16 19:12:02 18.2 20 19.1
002F252D 2019-04-16 18:39:14 18.2 21 19.4
002F252D 2019-04-16 18:06:26 18.2 20 19.7
002F252D 2019-04-16 17:00:49 18.4 20 19.5
002F252D 2019-04-16 16:28:00 18.6 20 19.6
002F252D 2019-04-16 15:55:11 18.8 20 19.4
002F252D 2019-04-16 15:22:25 19 20 19.3
002F252D 2019-04-16 14:49:38 19.5 20 19.2
002F252D 2019-04-16 14:16:51 20.6 20 19
002F252D 2019-04-16 13:44:05 21.2 20 19.4
002F252D 2019-04-16 13:11:17 21.1 20 19.4
002F252D 2019-04-16 12:38:30 21.1 20 19.5
002F252D 2019-04-16 12:05:42 21 20 19.5
002F252D 2019-04-16 11:32:54 21 20 19.6
002F252D 2019-04-16 11:00:06 21 20 19.5
002F252D 2019-04-16 10:27:18 21 20 19.3
002F252D 2019-04-16 09:54:33 21 20 20.9
002F252D 2019-04-16 09:21:44 21 20 21
002F252D 2019-04-16 08:48:55 21 20 21.1
002F252D 2019-04-16 08:16:08 21 20 21.1
002F252D 2019-04-16 07:43:20 21 20 21.2
002F252D 2019-04-16 07:10:33 21 20 21.1
002F252D 2019-04-16 06:37:45 21 20 20.8
002F252D 2019-04-16 06:04:58 21 20 20.7
002F252D 2019-04-16 05:32:12 21 20 20.7
002F252D 2019-04-16 04:59:22 21 20 20.6
002F252D 2019-04-16 04:26:36 21 20 20.3
002F252D 2019-04-16 03:53:46 21 20 19.9
002F252D 2019-04-16 03:20:58 21 19 20
002F252D 2019-04-16 02:48:09 21 19 19.7
002F252D 2019-04-16 02:15:22 21 19 19.6
002F252D 2019-04-16 01:42:34 21 19 19.6
002F252D 2019-04-16 01:09:46 21 19 20.5
002F252D 2019-04-16 00:36:57 21 19 20.7
002F252D 2019-04-16 00:04:09 21 19 21.3
002F252D 2019-04-15 23:31:21 21 19 21.6
002F252D 2019-04-15 22:58:34 21 19 22.5
002F252D 2019-04-15 22:25:48 21.1 19 23.2
002F252D 2019-04-15 21:52:59 21.1 19 23.5
002F252D 2019-04-15 21:20:12 21.1 19 23.8
002F252D 2019-04-15 20:47:27 21.2 19 24.1
002F252D 2019-04-15 20:14:39 21 19 23.9
002F252D 2019-04-15 19:41:52 21 19 24
002F252D 2019-04-15 19:09:07 21 19 24.1
002F252D 2019-04-15 18:36:20 21 19 24.7
002F252D 2019-04-15 18:03:32 21 19 24.8
002F252D 2019-04-15 17:30:46 21.1 18 25.2
002F252D 2019-04-15 16:57:59 21.2 18 25.4
002F252D 2019-04-15 16:25:13 21.2 18 25.7
002F252D 2019-04-15 15:52:23 21.2 18 25.9
002F252D 2019-04-15 15:19:37 21.4 18 26.1
002F252D 2019-04-15 14:46:46 21.4 18 26.2
002F252D 2019-04-15 14:13:58 21.4 18 26.6
002F252D 2019-04-15 13:41:11 21.6 18 26.7
002F252D 2019-04-15 13:08:22 21.8 18 26.9
002F252D 2019-04-15 12:35:33 22 17 27
002F252D 2019-04-15 12:02:46 22.5 17 27.1
002F252D 2019-04-15 11:29:57 22.2 16 27.1
002F252D 2019-04-15 10:57:11 22.2 16 27.2
002F252D 2019-04-15 10:24:22 22.2 17 27.2
002F252D 2019-04-15 09:51:32 22.1 17 27.2
002F252D 2019-04-15 09:18:44 22 17 27.2
002F252D 2019-04-15 08:45:55 22 17 27.1
002F252D 2019-04-15 08:13:07 21.9 17 27.2
002F252D 2019-04-15 07:40:18 21.8 17 27.2
002F252D 2019-04-15 07:07:29 21.8 17 27.2
002F252D 2019-04-15 06:34:41 21.8 17 27.1
002F252D 2019-04-15 06:01:53 21.8 17 27.1
002F252D 2019-04-15 05:29:04 21.8 17 27.2
002F252D 2019-04-15 04:56:17 21.7 17 27
002F252D 2019-04-15 04:23:30 21.8 17 27.1
002F252D 2019-04-15 03:50:42 21.8 17 26.9
002F252D 2019-04-15 03:17:54 21.8 17 26.9
002F252D 2019-04-15 02:45:06 21.7 17 26.8
002F252D 2019-04-15 02:12:16 21.8 17 27
002F252D 2019-04-15 01:39:28 21.7 17 27
002F252D 2019-04-15 01:06:40 21.8 18 27
002F252D 2019-04-15 00:33:52 21.7 18 26.8
002F252D 2019-04-15 00:01:03 21.7 18 26.7
002F252D 2019-04-14 23:28:15 21.8 18 26.6
002F252D 2019-04-14 22:55:26 21.8 18 26.6
002F252D 2019-04-14 22:22:37 21.8 18 26.6
002F252D 2019-04-14 21:49:49 21.8 18 26.6
002F252D 2019-04-14 21:17:02 21.8 18 26.8
002F252D 2019-04-14 20:44:14 21.8 18 26.7
002F252D 2019-04-14 20:11:29 21.8 18 27
002F252D 2019-04-14 19:38:40 21.8 18 27
002F252D 2019-04-14 19:05:53 21.8 18 26.9
002F252D 2019-04-14 18:33:04 21.8 18 26.9
002F252D 2019-04-14 18:00:17 21.8 18 27.1
002F252D 2019-04-14 17:27:29 21.8 18 27
002F252D 2019-04-14 16:54:41 21.8 18 27
002F252D 2019-04-14 16:21:54 21.8 18 27
002F252D 2019-04-14 15:49:06 21.8 18 27
002F252D 2019-04-14 15:16:19 21.8 18 27
002F252D 2019-04-14 14:43:33 21.8 18 26.9
002F252D 2019-04-14 14:10:46 21.8 18 27.1
002F252D 2019-04-14 13:37:58 21.8 18 27.2
002F252D 2019-04-14 13:05:12 21.8 18 27.2
002F252D 2019-04-14 12:32:25 21.8 18 27.2
002F252D 2019-04-14 11:59:38 21.8 18 27.2
002F252D 2019-04-14 11:26:50 21.8 18 27.1
002F252D 2019-04-14 10:54:03 21.8 18 27.1
002F252D 2019-04-14 10:21:16 21.8 18 27.1
002F252D 2019-04-14 09:48:29 21.8 18 27.2
002F252D 2019-04-14 09:15:41 21.8 18 27.1
002F252D 2019-04-14 08:42:54 21.8 18 27.1
002F252D 2019-04-14 08:10:07 21.8 18 27
002F252D 2019-04-14 07:37:18 21.8 18 26.7
002F252D 2019-04-14 07:04:31 21.8 18 26.7
002F252D 2019-04-14 06:31:44 21.8 18 26.3
002F252D 2019-04-14 05:58:56 21.8 18 26
002F252D 2019-04-14 05:26:08 21.8 18 26
002F252D 2019-04-14 04:53:21 21.8 18 26.2
002F252D 2019-04-14 04:20:33 21.8 18 26
002F252D 2019-04-14 03:47:46 21.8 18 25.9
002F252D 2019-04-14 03:14:57 21.8 18 25.9
002F252D 2019-04-14 02:42:10 21.8 18 25.9
002F252D 2019-04-14 02:09:23 21.8 18 25.9
002F252D 2019-04-14 01:36:36 21.9 18 26.1
002F252D 2019-04-14 01:03:49 22 18 26
002F252D 2019-04-14 00:31:01 21.9 18 25.9
002F252D 2019-04-13 23:58:13 22 18 26
002F252D 2019-04-13 23:25:24 22 18 26
002F252D 2019-04-13 22:52:36 22 18 25.7
002F252D 2019-04-13 22:19:48 22 18 25.6
002F252D 2019-04-13 21:46:59 22 18 25.7
002F252D 2019-04-13 21:14:11 22 18 25.6
002F252D 2019-04-13 20:41:22 22 18 25.5
002F252D 2019-04-13 20:08:34 22 18 25.5
002F252D 2019-04-13 19:35:45 22.1 18 25.5
002F252D 2019-04-13 19:02:56 22.1 18 25.6
002F252D 2019-04-13 18:30:08 22.1 18 25.6
002F252D 2019-04-13 17:57:19 22.1 18 25.7
002F252D 2019-04-13 17:24:30 22.2 18 25.9
002F252D 2019-04-13 16:51:41 22.2 18 26
002F252D 2019-04-13 16:18:52 22.2 18 26
002F252D 2019-04-13 15:46:02 22.2 18 26.1
002F252D 2019-04-13 15:13:13 22.2 18 25.9
002F252D 2019-04-13 14:40:23 22.2 18 25.8
002F252D 2019-04-13 14:07:34 22.2 18 26
002F252D 2019-04-13 13:34:44 22.2 18 26.1
002F252D 2019-04-13 13:01:55 22.2 18 26.1
002F252D 2019-04-13 12:29:05 22.2 18 26.1
002F252D 2019-04-13 11:56:15 22.2 18 25.9
002F252D 2019-04-13 11:23:26 22.2 18 25.9
002F252D 2019-04-13 10:50:37 22.2 18 25.8
002F252D 2019-04-13 10:17:48 22.2 18 25.5
002F252D 2019-04-13 09:45:00 22.2 18 25.5
002F252D 2019-04-13 09:12:11 22.2 18 25.8
002F252D 2019-04-13 08:39:22 22.2 18 25.8
002F252D 2019-04-13 08:06:33 22.2 18 25.8
002F252D 2019-04-13 07:33:44 22.2 18 25.8
002F252D 2019-04-13 07:00:54 22.2 18 26.2
002F252D 2019-04-13 06:28:04 22.2 18 26.4
002F252D 2019-04-13 05:55:14 22.2 18 26.4
002F252D 2019-04-13 05:22:25 22.2 18 26.3
002F252D 2019-04-13 04:49:35 22.2 18 26.3
002F252D 2019-04-13 04:16:46 22.3 18 26.6
002F252D 2019-04-13 03:43:56 22.3 18 26.5
002F252D 2019-04-13 03:11:06 22.5 18 26.4
002F252D 2019-04-13 02:38:18 22.5 18 26.4
002F252D 2019-04-13 02:05:28 22.5 18 26.3
002F252D 2019-04-13 01:32:39 22.5 18 26.3
002F252D 2019-04-13 00:59:50 22.5 18 26.3
002F252D 2019-04-13 00:27:01 22.5 18 26.2
002F252D 2019-04-12 23:54:12 22.6 19 26.1
002F252D 2019-04-12 23:21:23 22.7 19 26.2
002F252D 2019-04-12 22:48:33 22.7 19 26.2
002F252D 2019-04-12 22:15:44 22.7 19 26.4
002F252D 2019-04-12 21:42:56 22.7 19 26.5
002F252D 2019-04-12 21:10:08 22.7 19 26.6
002F252D 2019-04-12 20:37:19 22.8 19 26.7
002F252D 2019-04-12 20:04:30 22.8 18 26.8
002F252D 2019-04-12 19:31:40 22.9 18 26.4
002F252D 2019-04-12 18:58:53 22.9 18 26.5
002F252D 2019-04-12 18:26:03 22.9 17 26.7
002F252D 2019-04-12 17:53:13 23 18 26.8
002F252D 2019-04-12 17:20:22 22.9 18 26.2
002F252D 2019-04-12 16:47:33 22.9 18 25.7
002F252D 2019-04-12 16:14:42 22.9 18 25.9
002F252D 2019-04-12 15:41:52 22.7 19 26.3
002F252D 2019-04-12 15:09:02 22.6 19 26.4
002F252D 2019-04-12 14:36:11 22.3 19 23.9
002F252D 2019-04-12 14:03:21 22 20 23.2
002F252D 2019-04-12 13:30:31 21.5 21 23.2
002F252D 2019-04-12 12:57:41 20.7 26 0